Location: Redwood Loop Observatory
(43.9900°N, 124.0900°W)
Time: 13:52:08
(UTC-08:00)

Envisat - Pass Details

Date: 25 October 2019
Orbit: 764 x 766 km, 98.1° (Epoch: 13 November)

Event Time Altitude Azimuth Distance (km) Brightness Sun altitude
Rises 19:04:06 0° 159° (SSE) 3,219 6.1 -9.2°
Reaches altitude 10° 19:06:24 10° 158° (SSE) 2,297 5.3 -9.6°
Maximum altitude 19:11:26 73° 74° (ENE) 802 2.9 -10.5°
Drops below altitude 10° 19:16:31 10° 351° (N) 2,312 5.5 -11.4°
Sets 19:18:50 0° 349° (N) 3,243 6.3 -11.8°
